CZ-3B R/B, 45864

Orbit data source: Space-Track

CZ-3B R/B, 45864 is space debris in HEO originally from a launch on Thu, 09 Jul 2020 UTC launched from the Xichang Space Center, China (XSC). Debris objects in space refer to the collection of defunct objects orbiting the Earth. Examples of debris include non-operational satellites, rocket bodies, and fragments generated from explosions, collisions, or faulty payload assembly.

Loading next visibility...
Identifier
45864, 2020-045B
Orbit
HEO
Country
Flag of CNCN / PRC
Related business
Manufacturer
CALT
Mission
Spacecraft
Bus & Motor
CZ-3A STAGE 3, Unknown motor
Mass
~2,800 kg wet, ~2,800 kg dry
Launch date (UTC)
2020-07-09 (5 years ago)
Launch vehicle
Unknown
Launch site
Xichang Space Center, China (XSC)
Object type
Payload
Rocket body
Debris
Shape & HBR
Cyl + 1 Nozzle, 6.2 m
Radar Cross Section
32.704 m², Large (>1 m²)

Expand to show TLE details & history
Last TLE update: 20 hours ago

TLE from 20 hours ago
0 CZ-3B R/B
1 45864U 20045B   25308.51960830  .00080201 -45541-6  13519-2 0  9996
2 45864  28.3866 346.5734 5424086 334.2695   6.6275  5.04869887 65366
Epoch: 2025-11-04T12:28Z
TLE epoch observation values (Epoch: 2025-11-04T12:28:14.157Z)
Latitude
0.00029°
Longitude
115.51372°
Altitude
434.477 km
Speed
9.447 km/s
True Right ascension
23h 06m 18s
True Declination
0° 00' 01"
Sunlit
Object was in full shadow at epoch
Visualization orbit readout
Latitude
Unknown
Longitude
Unknown
Altitude
Unknown
Speed
Unknown
Apparent Right ascension
Unknown
Apparent Declination
Unknown
Sunlit
N/A
Visualization observer readout
Local Sidereal Time
04:15:34
Azimuth
Unknown
Elevation
Unknown
Doppler factor
Unknown
Orbital elements
Apogee altitude
15,765.659 km
Perigee altitude
191.335 km
Semi-major axis
14,356.634 km
Eccentricity
0.54241
Inclination
28.3866°
RAAN
346.5734°
Arg. of periapsis
334.2695°
True anomaly
25.95261°
Mean anomaly
6.6275°
Eccentric anomaly
14.30773°
Mean motion
1.26172 °/min
Orbital period
285.32 mins
BSTAR
0.0013519
Loading maneuver chart data...
Computing Atmospheric mass density...
Loading historical data...
Loading historical data...
Loading historical data...
Loading historical data...
Loading historical data...
Loading historical data...
Loading historical data...
Other satellites on launch #45 in the year 2020 (2020-07-09 UTC)

Documentation

Showing up to 5 results
|